Weather History for Carlsbad, NM

Change the Weather History Date:

Saturday, September 28, 2013

  Actual Average Record
Temperature  
Mean Temperature 67 °F -  
Max Temperature 78 °F 82 °F 101 °F (1977)
Min Temperature 55 °F 55 °F 42 °F (1973)
Cooling Degree Days 2    
Growing Degree Days 17 (Base 50)    
Moisture  
Dew Point 39 °F    
Average Humidity 37    
Maximum Humidity 72    
Minimum Humidity 21    
Precipitation  
Precipitation 0.00 in - - ()
Sea Level Pressure  
Sea Level Pressure 29.97 in    
Wind  
Wind Speed 13 mph (NNW)    
Max Wind Speed 20 mph    
Max Gust Speed 30 mph    
Visibility 10 miles    
Events      
Averages and records for this station are not official NWS values.
T = Trace of Precipitation, MM = Missing Value Source: NWS Daily Summary

Daily Weather History Graph

Daily Weather History Graph

Search for Another Location

Airport:

Trip Planner

Search our weather history database for the weather conditions in past years. The results will help you decide how hot, cold, wet, or windy it might be!

Date:

Astronomy

Sep. 28, 2013 Rise Set
Actual Time 6:49 AM MDT 6:45 PM MDT
Civil Twilight 6:24 AM MDT 7:09 PM MDT
Nautical Twilight 5:56 AM MDT 7:38 PM MDT
Astronomical Twilight 5:27 AM MDT 8:06 PM MDT
Moon 12:56 AM MDT (9/28) 2:49 PM MDT (9/28)
Length of Visible Light 12h 44m
Length of Day
11h 56m
Waning Crescent, 35% of the Moon is Illuminated
Sep 28
Waning Crescent
Oct 4
New
Oct 11
First Quarter
Oct 18
Full
Oct 26
Last Quarter

Hourly Weather History & Observations

Time (MDT) Temp. Dew Point Humidity Pressure Visibility Wind Dir Wind Speed Gust Speed Precip Events Conditions
12:53 AM 70.0 °F 45.0 °F 41% 29.77 in 10.0 mi North 19.6 mph 29.9 mph N/A   Partly Cloudy
1:06 AM 71.1 °F 44.1 °F 38% 29.94 in 10.0 mi North 16.1 mph - N/A   Mostly Cloudy
1:16 AM 71.1 °F 44.1 °F 38% 29.95 in 10.0 mi North 19.6 mph - N/A   Overcast
1:53 AM 70.0 °F 39.0 °F 32% 29.80 in 10.0 mi North 19.6 mph - N/A   Overcast
2:53 AM 66.9 °F 35.1 °F 31% 29.81 in 10.0 mi North 13.8 mph - N/A   Overcast
3:53 AM 64.0 °F 34.0 °F 33% 29.84 in 10.0 mi NNW 10.4 mph - N/A   Partly Cloudy
4:53 AM 63.0 °F 32.0 °F 31% 29.88 in 10.0 mi NNW 12.7 mph - N/A   Mostly Cloudy
5:53 AM 61.0 °F 33.1 °F 35% 29.91 in 10.0 mi NW 10.4 mph - N/A   Partly Cloudy
6:53 AM 57.9 °F 34.0 °F 41% 29.97 in 10.0 mi NW 9.2 mph - N/A   Partly Cloudy
7:53 AM 62.1 °F 30.9 °F 31% 29.99 in 10.0 mi NNW 10.4 mph - N/A   Partly Cloudy
8:53 AM 66.0 °F 28.9 °F 25% 30.01 in 10.0 mi NNW 18.4 mph - N/A   Clear
9:53 AM 68.0 °F 27.0 °F 21% 30.04 in 10.0 mi North 19.6 mph - N/A   Clear
10:53 AM 70.0 °F 32.0 °F 25% 30.06 in 10.0 mi North 11.5 mph - N/A   Clear
11:53 AM 72.0 °F 37.9 °F 29% 30.05 in 10.0 mi NNW 10.4 mph - N/A   Clear
12:53 PM 73.0 °F 39.0 °F 29% 30.03 in 10.0 mi Variable 5.8 mph - N/A   Clear
1:53 PM 73.9 °F 39.0 °F 28% 30.00 in 10.0 mi Variable 5.8 mph - N/A   Clear
2:53 PM 77.0 °F 41.0 °F 28% 29.98 in 10.0 mi North 5.8 mph - N/A   Clear
3:53 PM 75.9 °F 39.9 °F 27% 29.97 in 10.0 mi NW 3.5 mph - N/A   Clear
4:53 PM 77.0 °F 37.9 °F 24% 29.96 in 10.0 mi NNW 5.8 mph - N/A   Clear
5:53 PM 75.9 °F 39.0 °F 26% 29.97 in 10.0 mi NW 10.4 mph - N/A   Clear
6:53 PM 68.0 °F 43.0 °F 40% 30.01 in - WNW 6.9 mph - N/A   Clear
7:53 PM 62.1 °F 46.0 °F 56% 30.03 in 10.0 mi WNW 8.1 mph - N/A   Clear
8:53 PM 59.0 °F 46.0 °F 62% 30.06 in 10.0 mi West 5.8 mph - N/A   Clear
9:53 PM 61.0 °F 43.0 °F 52% 30.09 in 10.0 mi NNE 3.5 mph - N/A   Clear
10:53 PM 57.0 °F 45.0 °F 64% 30.10 in 10.0 mi WNW 5.8 mph - N/A   Clear
11:53 PM 55.0 °F 46.0 °F 72% 30.10 in 10.0 mi WNW 4.6 mph - N/A   Clear